Location: Mary A Oil Field
(38.5606°N, 98.9545°W)
Time: 01:49:19
(UTC+00:00)

Cosmos 1727 Rocket - Pass Details

Date: 20 January 2020
Orbit: 960 x 997 km, 82.9° (Epoch: 22 February)

Event Time Altitude Azimuth Distance (km) Brightness Sun altitude
Rises 01:29:10 0° 358° (N) 3,664 6.9 -20.6°
Reaches altitude 10° 01:31:46 10° 4° (N) 2,709 6.2 -21.1°
Maximum altitude 01:37:47 51° 79° (E) 1,194 4.0 -22.2°
Drops below altitude 10° 01:43:44 10° 155° (SSE) 2,685 6.1 -23.4°
Sets 01:46:18 0° 160° (SSE) 3,628 6.9 -23.9°
